�N����,����,�~����,�C��,���x,�C��,����,���ϕ���,�ő�u�ԕ���,�ő厞����,���˗�,�I�_���x,�n�����x,�ő啗���N��,DTYPE
"22/04/26","00:10",0.0,17.4,88.4,1009.5,293.4,1.3,2.4,304.0,0.00,15.5,18.9,"00:04:08",1
"22/04/26","00:20",0.0,17.5,88.8,1009.3,302.1,1.5,2.1,308.4,0.00,15.7,18.7,"00:14:32",1
"22/04/26","00:30",0.0,17.5,89.1,1009.3,299.9,1.7,2.1,320.2,0.00,15.7,18.7,"00:29:52",1
"22/04/26","00:40",0.0,17.3,89.3,1009.0,303.5,1.6,2.8,314.2,0.00,15.6,18.6,"00:34:08",1
"22/04/26","00:50",0.0,17.2,89.6,1009.3,299.4,1.3,2.2,316.0,0.00,15.5,18.5,"00:49:12",1
"22/04/26","01:00",0.0,17.1,89.9,1009.3,298.5,1.6,2.0,319.9,0.00,15.5,18.5,"00:53:20",1
"22/04/26","01:10",0.0,17.0,90.3,1009.3,304.2,1.7,2.4,309.8,0.00,15.4,18.3,"01:06:56",1
"22/04/26","01:20",0.0,16.9,90.5,1009.0,288.1,1.3,1.9,299.2,0.00,15.4,18.5,"01:11:12",1
"22/04/26","01:30",0.0,16.9,90.8,1009.5,285.6,1.3,2.5,314.6,0.00,15.4,18.3,"01:29:36",1
"22/04/26","01:40",0.0,16.8,91.0,1009.3,315.3,1.8,2.2,301.6,0.00,15.4,18.5,"01:32:16",1
"22/04/26","01:50",0.0,16.6,91.2,1009.5,324.6,1.3,1.8,319.8,0.00,15.2,18.4,"01:43:20",1
"22/04/26","02:00",0.0,16.5,91.5,1009.5,315.5,1.6,2.2,303.4,0.00,15.2,18.2,"01:57:36",1
"22/04/26","02:10",0.0,16.7,91.7,1008.8,320.6,1.8,2.8,310.3,0.00,15.4,18.3,"02:04:48",1
"22/04/26","02:20",0.0,16.7,91.8,1009.0,291.7,1.5,2.0,339.0,0.00,15.4,18.2,"02:10:24",1
"22/04/26","02:30",0.0,16.7,92.0,1008.8,291.8,1.5,2.1,314.3,0.00,15.4,18.1,"02:22:00",1
"22/04/26","02:40",0.0,16.8,92.2,1008.8,276.2,1.5,2.1,259.0,0.00,15.6,18.1,"02:33:52",1
"22/04/26","02:50",0.0,16.7,92.2,1009.0,320.8,1.5,2.1,316.7,0.00,15.5,18.2,"02:45:20",1
"22/04/26","03:00",0.0,16.5,92.4,1008.6,317.8,1.5,2.7,321.3,0.00,15.3,18.1,"02:59:54",1
"22/04/26","03:10",0.0,16.4,92.6,1008.6,307.6,1.6,2.2,323.1,0.00,15.2,18.1,"03:00:16",1
"22/04/26","03:20",0.0,16.4,92.8,1008.8,290.1,1.2,1.6,295.2,0.00,15.3,18.0,"03:18:40",1
"22/04/26","03:30",0.0,16.6,92.9,1009.0,308.6,1.6,2.4,320.9,0.00,15.5,18.0,"03:24:40",1
"22/04/26","03:40",0.0,16.8,92.9,1009.0,322.0,1.8,2.5,327.5,0.00,15.7,17.9,"03:32:08",1
"22/04/26","03:50",0.0,16.9,93.0,1008.6,318.1,1.6,2.1,317.8,0.00,15.8,18.0,"03:41:28",1
"22/04/26","04:00",0.0,17.0,93.1,1008.8,315.7,1.7,2.2,320.3,0.00,15.9,17.8,"03:52:24",1
"22/04/26","04:10",0.0,17.0,93.1,1008.6,314.6,1.2,1.6,315.2,0.00,15.9,18.0,"04:01:28",1
"22/04/26","04:20",0.0,16.9,93.1,1008.1,310.9,1.2,1.4,322.6,0.00,15.8,17.8,"04:16:48",1
"22/04/26","04:30",0.0,16.7,93.1,1008.1,286.0,0.6,1.1,275.5,0.00,15.6,17.9,"04:29:12",1
"22/04/26","04:40",0.0,16.6,93.3,1008.1,297.5,1.5,1.9,315.0,0.00,15.6,17.8,"04:37:04",1
"22/04/26","04:50",0.0,16.6,93.4,1008.3,301.3,1.6,2.2,324.8,0.00,15.6,17.7,"04:42:56",1
"22/04/26","05:00",0.0,16.7,93.5,1008.6,325.1,1.7,2.6,332.6,0.00,15.7,17.9,"04:54:08",1
"22/04/26","05:10",0.0,16.7,93.6,1008.3,332.1,1.5,1.9,333.9,0.00,15.7,17.8,"05:00:08",1
"22/04/26","05:20",0.0,16.6,93.6,1008.8,326.4,1.8,2.2,323.9,0.00,15.6,17.7,"05:14:56",1
"22/04/26","05:30",0.0,16.5,93.8,1008.8,294.4,1.6,2.2,324.3,0.00,15.5,17.7,"05:27:20",1
"22/04/26","05:40",0.0,16.6,93.9,1008.8,319.2,1.7,2.7,331.2,0.00,15.7,17.7,"05:31:44",1
"22/04/26","05:50",0.0,16.7,94.0,1008.8,316.3,1.8,2.2,322.3,0.00,15.8,17.7,"05:48:32",1
"22/04/26","06:00",0.0,16.8,94.1,1008.6,282.5,0.5,1.7,305.7,0.00,15.9,17.7,"05:50:08",1
"22/04/26","06:10",0.0,16.9,94.2,1008.6,269.2,1.1,1.6,302.3,0.00,16.0,17.6,"06:09:36",1
"22/04/26","06:20",0.0,17.0,94.2,1008.6,311.9,1.5,1.9,316.8,0.00,16.1,17.5,"06:15:28",1
"22/04/26","06:30",0.0,17.2,94.2,1008.1,312.4,1.5,2.0,321.6,0.00,16.3,17.8,"06:20:40",1
"22/04/26","06:40",0.0,17.3,94.2,1008.1,297.0,1.2,1.7,318.6,0.00,16.4,17.8,"06:38:40",1
"22/04/26","06:50",0.0,17.4,94.2,1008.1,295.1,1.3,1.8,273.6,0.00,16.5,17.6,"06:49:12",1
"22/04/26","07:00",0.0,17.6,94.2,1008.1,319.9,1.5,2.4,328.8,0.00,16.7,17.6,"06:59:20",1
"22/04/26","07:10",0.0,17.7,94.2,1008.3,329.1,1.6,2.0,326.3,0.01,16.8,17.6,"07:00:24",1
"22/04/26","07:20",0.0,18.1,94.2,1008.1,334.1,1.1,1.7,337.3,0.04,17.2,17.6,"07:10:32",1
"22/04/26","07:30",0.0,18.3,94.1,1007.8,323.3,1.5,1.9,325.8,0.06,17.4,17.6,"07:24:56",1
"22/04/26","07:40",0.0,18.8,93.9,1007.8,300.8,0.6,1.9,336.8,0.03,17.8,17.6,"07:30:16",1
"22/04/26","07:50",0.0,18.8,93.5,1007.6,231.3,0.8,1.6,242.5,0.04,17.8,17.5,"07:48:48",1
"22/04/26","08:00",0.0,19.1,93.5,1007.6,259.6,1.1,1.8,263.8,0.05,18.1,17.5,"07:57:04",1
"22/04/26","08:10",0.0,19.2,93.0,1008.1,265.0,1.2,2.0,258.7,0.03,18.1,17.4,"08:00:24",1
"22/04/26","08:20",0.0,19.4,92.7,1007.6,314.2,1.0,1.6,335.8,0.03,18.2,17.5,"08:19:52",1
"22/04/26","08:30",0.0,19.7,92.4,1006.7,316.7,0.8,1.3,322.6,0.05,18.5,17.7,"08:22:00",1
"22/04/26","08:40",0.0,19.7,91.7,1006.9,315.1,0.8,1.7,320.7,0.04,18.4,17.5,"08:37:52",1
"22/04/26","08:50",0.0,19.7,91.0,1006.7,336.3,1.6,2.4,318.7,0.04,18.2,17.5,"08:42:16",1
"22/04/26","09:00",0.0,19.9,90.5,1006.4,320.8,1.3,2.2,336.5,0.07,18.3,17.5,"08:55:36",1
"22/04/26","09:10",0.0,20.0,89.4,1006.0,314.0,1.2,2.4,338.9,0.08,18.2,17.5,"09:03:36",1
"22/04/26","09:20",0.0,20.2,88.1,1006.2,301.6,1.1,2.1,340.6,0.08,18.2,17.6,"09:11:04",1
"22/04/26","09:30",0.0,20.7,87.1,1005.5,291.1,0.6,1.4,322.6,0.16,18.5,17.6,"09:21:04",1
"22/04/26","09:40",0.0,21.6,84.9,1005.7,313.2,1.2,2.6,343.1,0.29,19.0,17.7,"09:32:48",1
"22/04/26","09:50",0.0,21.7,81.6,1005.5,338.8,1.1,2.0,327.5,0.21,18.5,17.6,"09:40:48",1
"22/04/26","10:00",0.0,22.1,79.0,1005.2,7.4,0.6,1.7,345.7,0.17,18.3,17.7,"09:51:36",1
"22/04/26","10:10",0.0,21.9,77.3,1005.0,198.4,0.5,1.2,236.3,0.07,17.8,17.7,"10:04:16",1
"22/04/26","10:20",0.0,21.7,77.4,1005.2,248.0,0.5,1.1,248.3,0.03,17.6,17.6,"10:18:08",1
"22/04/26","10:30",0.0,21.5,78.3,1005.2,224.5,0.7,1.6,229.0,0.03,17.6,17.7,"10:27:44",1
"22/04/26","10:40",0.0,21.3,78.5,1004.5,220.0,0.7,1.6,259.6,0.03,17.5,17.6,"10:39:44",1
"22/04/26","10:50",0.0,21.4,78.6,1004.8,268.5,1.0,1.8,303.9,0.04,17.6,17.7,"10:46:48",1
"22/04/26","11:00",0.2,21.6,79.3,1004.8,308.7,1.0,2.4,315.7,0.06,17.9,17.7,"10:59:12",1
"22/04/26","11:10",0.0,21.1,81.6,1004.8,326.4,2.0,2.6,311.0,0.01,17.9,17.9,"11:03:52",1
"22/04/26","11:20",0.0,20.9,83.4,1004.1,332.8,1.2,2.0,341.4,0.02,18.0,17.9,"11:13:36",1
"22/04/26","11:30",0.0,20.9,84.8,1004.1,337.6,1.3,2.1,338.9,0.04,18.3,18.0,"11:22:16",1
"22/04/26","11:40",0.0,20.9,86.1,1004.3,315.0,1.6,2.1,315.9,0.05,18.5,17.8,"11:33:20",1
"22/04/26","11:50",0.0,20.9,86.8,1004.3,331.1,1.1,2.1,337.1,0.04,18.7,17.7,"11:41:36",1
"22/04/26","12:00",0.0,20.6,87.4,1004.1,333.3,1.3,2.5,344.1,0.03,18.5,18.0,"11:50:40",1
"22/04/26","12:10",0.0,20.7,87.8,1003.8,300.4,1.1,2.0,328.4,0.04,18.6,17.9,"12:09:28",1
"22/04/26","12:20",0.6,20.8,88.1,1003.8,299.0,1.3,2.6,345.3,0.06,18.8,17.9,"12:14:00",1
"22/04/26","12:30",0.8,20.6,88.8,1003.8,318.3,1.3,2.5,333.6,0.05,18.7,18.1,"12:25:36",1
"22/04/26","12:40",0.4,20.4,89.4,1004.1,341.4,1.3,2.9,347.8,0.07,18.6,17.7,"12:36:08",1
"22/04/26","12:50",0.2,20.6,90.0,1003.6,355.9,1.1,2.6,6.5,0.12,18.9,17.9,"12:44:08",1
"22/04/26","13:00",0.0,20.7,90.1,1003.6,336.0,0.8,1.8,343.9,0.18,19.1,17.9,"12:55:04",1
"22/04/26","13:10",0.2,20.8,90.2,1003.4,288.3,1.0,1.8,313.9,0.13,19.2,17.9,"13:02:48",1
"22/04/26","13:20",0.0,21.3,90.5,1003.1,307.3,0.8,1.7,304.4,0.22,19.7,18.1,"13:15:04",1
"22/04/26","13:30",0.0,21.3,90.3,1003.4,243.3,0.6,1.8,238.2,0.14,19.7,18.0,"13:25:12",1
"22/04/26","13:40",0.0,21.4,90.1,1003.1,268.3,0.5,1.0,315.3,0.13,19.7,18.2,"13:34:24",1
"22/04/26","13:50",0.0,21.6,89.9,1003.1,321.6,0.2,1.2,111.1,0.08,19.9,18.1,"13:49:44",1
"22/04/26","14:00",0.0,21.6,90.0,1003.4,215.3,0.3,1.1,246.5,0.11,19.9,18.1,"13:58:32",1
"22/04/26","14:10",0.0,21.6,89.7,1002.9,348.0,0.6,1.9,327.7,0.12,19.9,18.2,"14:04:08",1
"22/04/26","14:20",0.0,21.9,89.8,1002.9,81.7,0.6,1.9,351.5,0.16,20.2,18.1,"14:13:36",1
"22/04/26","14:30",0.0,22.0,89.2,1003.1,129.1,1.1,1.8,198.6,0.14,20.2,17.9,"14:22:56",1
"22/04/26","14:40",0.2,22.0,88.9,1002.4,114.0,1.1,2.9,120.3,0.11,20.1,18.2,"14:37:52",1
"22/04/26","14:50",0.0,22.1,89.0,1002.6,126.4,1.2,3.5,52.4,0.09,20.2,18.0,"14:40:40",1
"22/04/26","15:00",0.2,22.3,89.1,1002.2,82.0,0.7,2.0,97.0,0.11,20.5,18.2,"14:53:28",1
"22/04/26","15:10",0.2,22.2,89.1,1002.2,121.8,1.0,2.4,152.5,0.08,20.4,18.2,"15:09:38",1
"22/04/26","15:20",1.0,22.1,89.3,1002.4,108.5,1.3,3.4,235.1,0.03,20.3,18.2,"15:19:12",1
"22/04/26","15:30",1.8,22.5,89.2,1002.4,191.1,2.2,5.0,183.6,0.02,20.7,18.4,"15:26:08",1
"22/04/26","15:40",1.0,22.7,89.1,1002.2,200.9,1.5,3.7,153.7,0.03,20.9,18.5,"15:33:28",1
"22/04/26","15:50",0.4,22.8,88.8,1002.2,199.1,1.3,5.4,196.4,0.04,20.9,18.6,"15:48:56",1
"22/04/26","16:00",0.4,23.0,88.3,1002.2,204.3,2.5,8.6,141.0,0.05,21.0,18.5,"15:58:56",1
"22/04/26","16:10",0.2,23.2,87.8,1001.5,206.4,2.0,4.1,150.4,0.05,21.1,18.6,"16:04:48",1
"22/04/26","16:20",0.0,23.2,87.5,1001.7,201.5,1.8,6.3,208.5,0.04,21.0,18.7,"16:16:24",1
"22/04/26","16:30",0.0,23.2,87.4,1001.5,207.9,2.5,4.5,175.9,0.05,21.0,18.5,"16:22:56",1
"22/04/26","16:40",0.0,23.3,86.8,1001.7,217.5,2.6,6.5,144.5,0.04,21.0,18.6,"16:30:48",1
"22/04/26","16:50",0.0,23.3,86.4,1001.5,230.2,2.7,5.8,310.1,0.03,20.9,18.8,"16:44:24",1
"22/04/26","17:00",0.0,23.3,86.1,1001.5,223.6,2.1,5.4,250.1,0.03,20.9,18.5,"16:58:00",1
"22/04/26","17:10",0.0,23.4,85.7,1001.2,211.4,2.0,3.9,143.9,0.02,20.9,18.6,"17:09:44",1
"22/04/26","17:20",0.2,23.3,85.3,1001.5,199.6,2.6,4.9,192.8,0.01,20.7,18.7,"17:16:40",1
"22/04/26","17:30",0.0,23.2,85.3,1001.5,176.8,2.7,5.2,181.6,0.01,20.6,18.7,"17:28:16",1
"22/04/26","17:40",0.0,23.2,85.6,1001.2,189.8,2.7,4.8,199.5,0.01,20.7,18.6,"17:32:08",1
"22/04/26","17:50",0.0,23.1,85.7,1001.0,192.1,2.0,5.1,102.9,0.01,20.6,18.8,"17:42:24",1
"22/04/26","18:00",0.0,23.0,85.9,1001.0,208.8,1.8,4.0,217.2,0.01,20.6,18.5,"17:50:08",1
"22/04/26","18:10",0.0,23.1,86.0,1001.2,192.1,2.0,4.0,134.4,0.00,20.7,18.8,"18:02:16",1
"22/04/26","18:20",0.0,23.1,86.1,1000.8,200.1,1.3,3.9,131.5,0.00,20.7,18.7,"18:13:52",1
"22/04/26","18:30",0.0,23.3,86.0,1001.0,259.3,1.8,5.4,248.4,0.00,20.9,18.6,"18:21:44",1
"22/04/26","18:40",0.0,23.3,85.8,1000.5,228.2,2.2,5.2,236.6,0.00,20.8,18.7,"18:39:44",1
"22/04/26","18:50",0.0,23.5,85.2,1001.0,217.5,2.5,5.7,214.8,0.00,20.9,18.7,"18:49:36",1
"22/04/26","19:00",0.0,23.7,84.6,1000.8,235.0,3.0,7.3,240.2,0.00,21.0,18.5,"18:58:08",1
"22/04/26","19:10",0.0,23.8,84.0,1001.0,224.2,3.0,6.7,238.7,0.00,21.0,18.7,"19:05:20",1
"22/04/26","19:20",0.0,23.8,83.7,1000.8,234.1,3.0,7.8,229.3,0.00,20.9,18.8,"19:19:44",1
"22/04/26","19:30",0.0,23.9,83.3,1000.8,227.4,3.1,6.7,223.2,0.00,20.9,18.7,"19:26:24",1
"22/04/26","19:40",0.2,23.7,83.9,1001.0,219.8,2.7,8.9,211.2,0.00,20.9,18.8,"19:35:12",1
"22/04/26","19:50",0.6,23.5,84.7,1001.2,219.5,3.0,6.5,225.2,0.00,20.8,18.8,"19:49:12",1
"22/04/26","20:00",1.6,23.3,85.6,1001.5,235.5,3.0,5.1,250.4,0.00,20.8,18.7,"19:56:48",1
"22/04/26","20:10",1.4,22.9,86.8,1001.2,236.0,1.8,4.5,233.7,0.00,20.6,18.8,"20:02:32",1
"22/04/26","20:20",4.4,22.8,87.6,1001.5,256.1,1.6,3.6,232.2,0.00,20.7,19.2,"20:19:12",1
"22/04/26","20:30",7.4,22.6,88.6,1001.9,252.2,2.7,7.7,248.3,0.00,20.7,19.3,"20:20:16",1
"22/04/26","20:40",1.6,22.4,89.3,1001.7,251.7,2.2,5.7,252.7,0.00,20.6,19.4,"20:39:44",1
"22/04/26","20:50",0.2,22.4,89.6,1001.2,283.7,2.0,4.2,330.3,0.00,20.6,19.3,"20:43:52",1
"22/04/26","21:00",0.0,22.2,89.8,1001.5,246.1,1.0,2.6,304.4,0.00,20.5,19.3,"20:57:28",1
"22/04/26","21:10",0.0,22.2,90.0,1001.5,286.2,1.1,2.7,241.9,0.00,20.5,19.3,"21:00:56",1
"22/04/26","21:20",0.2,21.9,89.8,1001.7,277.9,2.0,4.4,235.1,0.00,20.2,19.3,"21:14:40",1
"22/04/26","21:30",0.4,21.7,89.7,1001.7,296.5,2.1,4.0,234.1,0.00,20.0,19.3,"21:24:08",1
"22/04/26","21:40",0.2,21.6,89.7,1001.9,309.0,2.1,4.1,305.9,0.00,19.9,19.4,"21:35:44",1
"22/04/26","21:50",0.2,21.5,89.9,1002.2,304.0,2.0,3.5,341.3,0.00,19.8,19.2,"21:46:48",1
"22/04/26","22:00",0.6,21.3,90.1,1001.7,325.7,1.8,3.5,310.5,0.00,19.7,19.4,"21:56:40",1
"22/04/26","22:10",0.0,21.1,90.3,1001.5,349.0,1.5,2.9,319.3,0.00,19.5,19.2,"22:00:16",1
"22/04/26","22:20",0.0,21.0,90.6,1001.9,296.4,1.0,1.9,352.8,0.00,19.4,19.2,"22:17:04",1
"22/04/26","22:30",0.2,20.9,90.9,1001.9,297.9,0.8,1.3,290.0,0.00,19.4,19.3,"22:20:16",1
"22/04/26","22:40",0.0,20.8,91.3,1002.2,343.8,0.6,1.2,6.1,0.00,19.4,19.3,"22:34:56",1
"22/04/26","22:50",0.2,20.7,91.4,1002.2,308.0,0.8,1.4,144.6,0.00,19.3,19.1,"22:40:24",1
"22/04/26","23:00",0.0,20.7,91.7,1002.2,340.7,0.8,1.4,321.3,0.00,19.3,19.1,"22:55:20",1
"22/04/26","23:10",0.0,20.6,92.0,1002.2,331.3,1.1,1.8,341.2,0.00,19.3,19.2,"23:02:48",1
"22/04/26","23:20",0.2,20.6,92.3,1002.4,273.9,0.8,1.6,342.1,0.00,19.3,19.2,"23:19:12",1
"22/04/26","23:30",0.2,20.5,92.5,1002.6,294.1,0.6,1.2,255.3,0.00,19.3,19.0,"23:27:36",1
"22/04/26","23:40",0.2,20.6,92.7,1002.4,301.1,0.8,1.0,338.3,0.00,19.4,19.1,"23:31:44",1
"22/04/26","23:50",0.2,20.5,92.9,1002.4,348.0,0.7,1.9,345.3,0.00,19.4,19.2,"23:44:40",1
"22/04/26","24:00",0.2,20.5,93.1,1002.4,104.1,0.1,0.5,112.0,0.00,19.4,19.0,"23:50:56",1
